User: anonymous   Login
Location: Oronoko Observatory
(41.9167°N, 86.3833°W)
Time: 16:55:34
(UTC-04:00)
Language:

PAYLOAD A - Orbit

View from above orbital plane
View from above orbital plane
View from above satellite
View from above satellite

Ground track
Ground track

The orbit data is extracted from the following two-line orbital elements,

1 27840U 03031A   17113.92504741 +.00000017 +00000-0 +18895-4 0  9996
2 27840 098.2043 113.7717 0096990 282.7998 076.2366 14.38879541725413
Epoch (UTC): 23 April 2017 22:12:04
Eccentricity: 0.0096990
inclination: 98.2043°
perigee height: 693 km
apogee height: 831 km
right ascension of ascending node: 113.7717°
argument of perigee: 282.7998°
revolutions per day: 14.38879541
mean anomaly at epoch: 76.2366°
orbit number at epoch: 72541

The dashed part of the orbit path shows where the satellite is in the earth's shadow,  

DLR